Location: Newark
(9.4667°S, 159.8167°E)
Time: 05:20:41
(UTC+00:00)

Vanguard 1 - Pass Details

Date: 23 November 2019
Orbit: 652 x 3831 km, 34.2° (Epoch: 05 December)

Event Time Altitude Azimuth Distance (km) Brightness Sun altitude
Rises 12:14:29 0° 243° (WSW) 5,195 14.1 -57.5°
Reaches altitude 10° 12:18:15 10° 230° (SW) 4,637 13.8 -57.9°
Maximum altitude 12:29:52 28° 175° (S) 4,444 13.5 -58.8°
Drops below altitude 10° 12:46:52 10° 123° (ESE) 6,785 14.4 -59.8°
Sets 12:54:14 0° 112° (ESE) 7,967 14.8 -60.0°
